Weather History for YCIN - October, 2012

Change the Weather History Date:

Sunday, October 14, 2012

  Actual Average Record
Temperature  
Mean Temperature 83 °F -  
Max Temperature 103 °F - - ()
Min Temperature 63 °F - - ()
Cooling Degree Days 18    
Growing Degree Days 33 (Base 50)    
Moisture  
Dew Point 61 °F    
Average Humidity 52    
Maximum Humidity 94    
Minimum Humidity 14    
Precipitation  
Precipitation 0.00 in - - ()
Sea Level Pressure  
Sea Level Pressure 29.91 in    
Wind  
Wind Speed 5 mph ()    
Max Wind Speed 12 mph    
Max Gust Speed -    
T = Trace of Precipitation, MM = Missing Value Source: Averaged Metar Reports

Daily Weather History Graph

Daily Weather History Graph

Search for Another Location

Airport or City:

Trip Planner

Search our weather history database for the weather conditions in past years. The results will help you decide how hot, cold, wet, or windy it might be!

Date:

Astronomy

Oct. 14, 2012 Rise Set
Actual Time 5:16 AM AWST 5:44 PM AWST
Civil Twilight 4:54 AM AWST 6:06 PM AWST
Nautical Twilight 4:29 AM AWST 6:32 PM AWST
Astronomical Twilight 4:03 AM AWST 6:58 PM AWST
Moon 3:56 AM AWST (10/14) 4:32 PM AWST (10/14)
Length of Visible Light 13h 12m
Length of Day
12h 28m
Waning Crescent, 3% of the Moon is Illuminated
Oct 14
Waning Crescent
Oct 15
New
Oct 22
First Quarter
Oct 30
Full
Nov 7
Last Quarter

Hourly Weather History & Observations

Time (AWST) Temp. Heat Index Dew Point Humidity Pressure Visibility Wind Dir Wind Speed Gust Speed Precip Events Conditions
12:00 AM 75.2 °F - 66.2 °F 73% 29.92 in - SW 5.8 mph - N/A   Unknown
1:00 AM 75.2 °F - 66.2 °F 73% 29.92 in - SSW 5.8 mph - N/A   Unknown
2:00 AM 73.4 °F - 66.2 °F 78% 29.92 in - South 5.8 mph - N/A   Unknown
3:00 AM 68 °F - 63 °F 79% 29.92 in - North 1.2 mph - -  
3:00 AM 68.0 °F - 62.6 °F 83% 29.92 in - North 1.2 mph - N/A   Unknown
5:00 AM 64.4 °F - 60.8 °F 88% 29.95 in - North 3.5 mph - N/A   Unknown
6:00 AM 65 °F - 63 °F 91% 29.95 in - North 4.6 mph - -  
6:00 AM 64.4 °F - 62.6 °F 94% 29.95 in - North 4.6 mph - N/A   Unknown
7:00 AM 75.2 °F - 69.8 °F 83% 29.98 in - NW 4.6 mph - N/A   Unknown
9:00 AM 87 °F - 65 °F 37% 29.98 in - North 4.6 mph - -  
9:00 AM 87.8 °F 89.4 °F 64.4 °F 46% 29.98 in - North 4.6 mph - N/A   Unknown
11:00 AM 96.8 °F 95.8 °F 57.2 °F 27% 29.95 in - NW 8.1 mph - N/A   Unknown
12:00 PM 98.6 °F 97.2 °F 55.4 °F 24% 29.92 in - WNW 5.8 mph - N/A   Unknown
1:00 PM 102.2 °F 100.4 °F 53.6 °F 20% 29.89 in - NNE 6.9 mph - N/A   Unknown
2:00 PM 102.2 °F - 51.8 °F 18% 29.86 in - West 6.9 mph - N/A   Unknown
3:00 PM 100 °F - 54 °F 14% 29.83 in - NNW 11.5 mph - -  
3:00 PM 100.4 °F 98.8 °F 55.4 °F 22% 29.83 in - NNW 11.5 mph - N/A   Unknown
4:00 PM 96.8 °F 95.1 °F 55.4 °F 25% 29.83 in - NW 10.4 mph - N/A   Unknown
5:00 PM 95.0 °F - 51.8 °F 23% 29.86 in - NW 6.9 mph - N/A   Unknown
6:00 PM 88 °F - 58 °F 26% 29.87 in - NW 5.8 mph - -  
6:00 PM 87.8 °F 86.5 °F 57.2 °F 35% 29.86 in - NW 5.8 mph - N/A   Unknown
7:00 PM 82.4 °F 82.9 °F 60.8 °F 48% 29.89 in - NW 4.6 mph - N/A   Unknown
8:00 PM 82.4 °F 84.6 °F 66.2 °F 58% 29.92 in - NNW 5.8 mph - N/A   Unknown
9:00 PM 81 °F - 65 °F 50% 29.94 in - West 5.8 mph - -  
9:00 PM 80.6 °F 82.7 °F 66.2 °F 61% 29.95 in - West 5.8 mph - N/A   Unknown
10:00 PM 80.6 °F 82.3 °F 64.4 °F 58% 29.95 in - WSW 5.8 mph - N/A   Unknown
11:00 PM 75.2 °F - 62.6 °F 65% 29.95 in - SW 4.6 mph - N/A   Unknown